Home > Weather > Podgorica > Past weeks

Flag for Montenegro Past Weather in Podgorica, Montenegro — Yesterday and Last 2 Weeks

Now
84 °F

Passing clouds.


Feels Like: 82 °F
Forecast: 59 / 85 °F
Wind: 6 mph from South

Location: Podgorica Titograd

Current Time: May 27, 2016 at 4:22:00 PM

Latest Report: May 27, 2016 at 4:00 PM


Visibility: N/A

Pressure: 29.98 "Hg

Humidity: 33%

Dew Point: 52 °F

Location of PodgoricaLocation

Past Weather in Podgorica — Graph

°F

Podgorica Temperature Yesterday

Maximum temperature yesterday: 77 °F (at 2:30 PM)
Minimum temperature yesterday: 57 °F (at 2:30 AM)
Average temperature yesterday: 67 °F

High & Low Weather Summary for the Past Weeks

 TemperatureHumidityPressure
High82 °F (May 22, 3:30 PM)100% (May 12, 3:00 PM)30.07 "Hg (May 12, 3:00 PM)
Low50 °F (May 18, 5:00 AM)28% (May 22, 4:30 PM)29.56 "Hg (May 12, 3:30 PM)
Average63 °F72%29.90 "Hg
* Reported May 12 3:00 PM — May 27 3:00 PM, Podgorica, Weather by CustomWeather, © 2016

Note: Actual official high and low records may vary slightly from our data, if they occured in-between our weather recording intervals... More about our weather records

Advertising

Podgorica Weather History for the Previous 24 Hours

Scroll right to see more
 ConditionsComfort  
Time TempWeatherWind HumidityBarometerVisibility
3:00 PM
Fri, May 27
82 °FPassing clouds.5 mph35%29.98 "HgN/A
2:30 PM82 °FPassing clouds.7 mph35%30.01 "HgN/A
2:00 PM81 °FPassing clouds.8 mph37%30.01 "HgN/A
1:30 PM81 °FPassing clouds.7 mph39%30.01 "HgN/A
1:00 PM81 °FPassing clouds.3 mph45%30.01 "HgN/A
12:30 PM79 °FPassing clouds.5 mph54%30.01 "HgN/A
12:00 PM79 °FPassing clouds.3 mph58%30.04 "HgN/A
11:30 AM77 °FPassing clouds.2 mph57%30.04 "HgN/A
11:00 AM77 °FPassing clouds.3 mph54%30.04 "HgN/A
10:30 AM75 °FPassing clouds.2 mph57%30.04 "HgN/A
10:00 AM73 °FPassing clouds.5 mph61%30.04 "HgN/A
9:30 AM72 °FPassing clouds.3 mph65%30.04 "HgN/A
9:00 AM70 °FPassing clouds.3 mph69%30.04 "HgN/A
8:30 AM68 °FPassing clouds.3 mph78%30.04 "HgN/A
8:00 AM66 °FPassing clouds.2 mph83%30.04 "HgN/A
7:30 AM64 °FPassing clouds.1 mph83%30.04 "HgN/A
7:00 AM63 °FPassing clouds.1 mph83%30.01 "HgN/A
6:30 AM61 °FPassing clouds.2 mph88%30.01 "HgN/A
6:00 AM59 °FPassing clouds.3 mph94%30.01 "HgN/A
5:30 AM57 °FPassing clouds.2 mph94%30.01 "HgN/A
5:00 AM57 °FClear.5 mph100%30.01 "Hg10 mi
4:30 AM59 °FClear.1 mph94%30.01 "Hg10 mi
4:00 AM59 °FClear.5 mph94%30.01 "Hg10 mi
3:30 AM59 °FClear.6 mph100%30.01 "Hg10 mi
3:00 AM59 °FClear.1 mph94%30.01 "Hg10 mi
2:30 AM61 °FClear.1 mph88%29.98 "Hg10 mi
2:00 AM61 °FClear.2 mph94%29.98 "Hg10 mi
1:30 AM61 °FClear.2 mph94%30.01 "Hg10 mi
1:00 AM63 °FClear.1 mph88%29.98 "Hg10 mi
12:30 AM63 °FClear.2 mph88%30.01 "Hg10 mi
12:00 AM64 °FClear.1 mph83%30.01 "Hg10 mi
11:30 PM
Thu, May 26
64 °FClear.No wind88%30.01 "Hg10 mi
11:00 PM64 °FClear.1 mph88%29.98 "Hg10 mi
10:30 PM64 °FClear.No wind88%29.98 "Hg10 mi
10:00 PM66 °FClear.1 mph83%29.98 "Hg10 mi
9:30 PM66 °FClear.2 mph83%29.98 "Hg10 mi
9:00 PM66 °FPassing clouds.2 mph83%29.98 "HgN/A
8:30 PM68 °FPassing clouds.3 mph78%29.95 "HgN/A
8:00 PM68 °FPassing clouds.5 mph78%29.95 "HgN/A
7:30 PM70 °FScattered clouds.7 mph73%29.95 "HgN/A
7:00 PM70 °FScattered clouds.9 mph73%29.95 "HgN/A
6:30 PM72 °FScattered clouds.7 mph69%29.95 "HgN/A
6:00 PM75 °FScattered clouds.6 mph61%29.92 "HgN/A
5:30 PM75 °FScattered clouds.10 mph61%29.92 "HgN/A
5:00 PM75 °FScattered clouds.10 mph61%29.95 "HgN/A
4:30 PM75 °FScattered clouds.7 mph54%29.92 "HgN/A
4:00 PM75 °FScattered clouds.7 mph57%29.95 "HgN/A
Weather by CustomWeather, © 2016

See weather overviewHow to use our weather pages